Tel Aviv, Israel

5:20 PM IST on November 19, 2017 (GMT +0200)
Ben Gurion

Weather History for LLBG - March, 2014

Change the Weather History Date:

Tuesday, March 4, 2014

  Actual Average Record
Temperature  
Mean Temperature 64 °F -  
Max Temperature 72 °F 68 °F 96 °F (2004)
Min Temperature 55 °F 52 °F 48 °F (1998)
Degree Days  
Heating Degree Days 2    
Growing Degree Days 14 (Base 50)    
Moisture  
Dew Point 49 °F    
Average Humidity 60    
Maximum Humidity 88    
Minimum Humidity 35    
Precipitation  
Precipitation 0.00 in - - ()
Sea Level Pressure  
Sea Level Pressure 29.88 in    
Wind  
Wind Speed 7 mph ()    
Max Wind Speed 17 mph    
Max Gust Speed -    
Visibility 4.6 miles    
Events      
Averages and records for this station are not official NWS values.
T = Trace of Precipitation, MM = Missing Value Source: Averaged Metar Reports

Daily Weather History Graph

Daily Weather History Graph

Search for Another Location

Airport or City:

Trip Planner

Search our weather history database for the weather conditions in past years. The results will help you decide how hot, cold, wet, or windy it might be!

Date:

Astronomy

Mar. 04, 2014 Rise Set
Actual Time 6:04 AM IST 5:40 PM IST
Civil Twilight 5:40 AM IST 6:04 PM IST
Nautical Twilight 5:11 AM IST 6:33 PM IST
Astronomical Twilight 4:43 AM IST 7:01 PM IST
Moon 7:51 AM IST (3/4) 9:10 PM IST (3/4)
Length of Visible Light 12h 24m
Length of Day
11h 35m
Waxing Crescent, 12% of the Moon is Illuminated
Mar 4
Waxing Crescent
Mar 8
First Quarter
Mar 16
Full
Mar 24
Last Quarter
Mar 30
New

Hourly Weather History & Observations

Time (IST) Temp. Dew Point Humidity Pressure Visibility Wind Dir Wind Speed Gust Speed Precip Events Conditions
12:20 AM 59.0 °F 53.6 °F 82% 29.80 in - SE 5.8 mph - N/A   Clear
12:50 AM 59.0 °F 53.6 °F 82% 29.83 in 5.6 mi SE 4.6 mph - N/A   Unknown
1:20 AM 57.2 °F 53.6 °F 88% 29.83 in 5.6 mi ESE 5.8 mph - N/A   Unknown
1:50 AM 57.2 °F 51.8 °F 82% 29.83 in 5.6 mi SSE 4.6 mph - N/A   Unknown
2:00 AM 57 °F 52 °F 76% 29.83 in 6 mi SSE 4.6 mph - -   Haze
2:20 AM 57.2 °F 51.8 °F 82% 29.80 in 5.6 mi SSE 5.8 mph - N/A   Unknown
2:50 AM 57.2 °F 50.0 °F 77% 29.80 in 5.6 mi SE 4.6 mph - N/A   Unknown
3:20 AM 57.2 °F 48.2 °F 72% 29.80 in - SSE 6.9 mph - N/A   Clear
3:50 AM 57.2 °F 46.4 °F 67% 29.77 in - South 4.6 mph - N/A   Clear
4:20 AM 59.0 °F 42.8 °F 55% 29.77 in - SSE 8.1 mph - N/A   Clear
4:50 AM 59.0 °F 41.0 °F 51% 29.80 in - SSE 5.8 mph - N/A   Clear
5:00 AM 58 °F 42 °F 43% 29.80 in 6 mi SSE 5.8 mph - -  
5:20 AM 57.2 °F 42.8 °F 59% 29.80 in - Variable 2.3 mph - N/A   Clear
5:50 AM 59.0 °F 42.8 °F 55% 29.80 in 5.6 mi Variable 2.3 mph - N/A   Unknown
6:20 AM 57.2 °F 44.6 °F 63% 29.80 in 3.7 mi Variable 3.5 mph - N/A   Unknown
6:50 AM 62.6 °F 44.6 °F 52% 29.80 in 3.1 mi SSE 5.8 mph - N/A   Haze
7:20 AM 62.6 °F 46.4 °F 55% 29.83 in 3.1 mi South 9.2 mph - N/A   Haze
7:50 AM 64.4 °F 46.4 °F 52% 29.86 in 3.1 mi South 10.4 mph - N/A   Haze
8:00 AM 64 °F 46 °F 40% 29.86 in 3 mi South 10.4 mph - -   Haze
8:20 AM 68.0 °F 46.4 °F 46% 29.86 in 3.1 mi SSW 12.7 mph - N/A   Haze
8:50 AM 68.0 °F 46.4 °F 46% 29.86 in 3.1 mi SSW 11.5 mph - N/A   Haze
9:20 AM 69.8 °F 46.4 °F 43% 29.86 in 3.1 mi SW 12.7 mph - N/A   Haze
9:50 AM 69.8 °F 50.0 °F 49% 29.89 in 3.1 mi WSW 16.1 mph - N/A   Haze
10:20 AM 69.8 °F 53.6 °F 56% 29.89 in 3.7 mi WSW 16.1 mph - N/A   Unknown
10:50 AM 69.8 °F 51.8 °F 53% 29.89 in 3.7 mi West 15.0 mph - N/A   Unknown
11:00 AM 70 °F 52 °F 42% 29.90 in 4 mi West 16.1 mph - -   Haze
11:20 AM 69.8 °F 50.0 °F 49% 29.89 in 4.3 mi West 15.0 mph - N/A   Unknown
11:50 AM 71.6 °F 50.0 °F 46% 29.89 in 5.0 mi West 13.8 mph - N/A   Unknown
12:20 PM 71.6 °F 50.0 °F 46% 29.89 in - West 17.3 mph - N/A   Clear
12:50 PM 71.6 °F 48.2 °F 43% 29.89 in - WNW 16.1 mph - N/A   Clear
1:20 PM 69.8 °F 50.0 °F 49% 29.89 in - West 13.8 mph - N/A   Clear
1:50 PM 69.8 °F 48.2 °F 46% 29.89 in - West 13.8 mph - N/A   Clear
2:00 PM 70 °F 48 °F 35% 29.90 in 6 mi West 13.8 mph - -  
2:20 PM 71.6 °F 50.0 °F 46% 29.89 in - West 10.4 mph - N/A   Clear
2:50 PM 69.8 °F 48.2 °F 46% 29.89 in - West 10.4 mph - N/A   Clear
3:20 PM 69.8 °F 50.0 °F 49% 29.89 in - West 10.4 mph - N/A   Clear
3:50 PM 69.8 °F 51.8 °F 53% 29.89 in - WNW 9.2 mph - N/A   Clear
4:20 PM 68.0 °F 50.0 °F 52% 29.92 in - WNW 9.2 mph - N/A   Clear
4:50 PM 66.2 °F 51.8 °F 60% 29.92 in - WNW 8.1 mph - N/A   Clear
5:00 PM 67 °F 52 °F 47% 29.92 in 6 mi WNW 8.1 mph - -  
5:20 PM 66.2 °F 51.8 °F 60% 29.92 in - WNW 6.9 mph - N/A   Clear
5:50 PM 64.4 °F 51.8 °F 64% 29.92 in - WNW 5.8 mph - N/A   Clear
6:20 PM 62.6 °F 53.6 °F 72% 29.95 in - NW 5.8 mph - N/A   Clear
6:50 PM 62.6 °F 51.8 °F 68% 29.95 in - Variable 2.3 mph - N/A   Clear
7:20 PM 62.6 °F 51.8 °F 68% 29.95 in - Variable 3.5 mph - N/A   Clear
7:50 PM 60.8 °F 51.8 °F 72% 29.98 in - Variable 1.2 mph - N/A   Clear
8:00 PM 61 °F 52 °F 64% 29.97 in 6 mi 1.2 mph - -  
8:20 PM 60.8 °F 50.0 °F 68% 29.98 in - ENE 5.8 mph - N/A   Clear
8:50 PM 59.0 °F 50.0 °F 72% 29.98 in - ENE 4.6 mph - N/A   Clear
9:20 PM 57.2 °F 48.2 °F 72% 29.95 in - East 4.6 mph - N/A   Clear
9:50 PM 57.2 °F 48.2 °F 72% 29.98 in - Variable 3.5 mph - N/A   Clear
10:20 PM 57.2 °F 50.0 °F 77% 29.98 in - Variable 2.3 mph - N/A   Clear
10:50 PM 55.4 °F 48.2 °F 77% 29.98 in - East 5.8 mph - N/A   Clear
11:00 PM 56 °F 48 °F 68% 29.99 in 6 mi East 5.8 mph - -  
11:20 PM 55.4 °F 48.2 °F 77% 29.98 in - Variable 3.5 mph - N/A   Clear
11:50 PM 55.4 °F 48.2 °F 77% 29.98 in - Variable 2.3 mph - N/A   Clear